• In Hungary
  • List of Countries
  • For 7 days
  • Water Temperature
  • Satellite Maps
  • Weather Map
  • News
  • Weather Widgets
  • user-avatar
    Login

    Hourly Weather Karachi

    Today, 23 January, Tuesday

    Time Temperature Precipitation Wind Pressure Humidity
    00:00 +21°C° 0 mm 5 mps 756 mmHg 39%
    01:00 +21°C° 0 mm 5 mps 755 mmHg 34%
    02:00 +20°C° 0 mm 5 mps 756 mmHg 31%
    03:00 +20°C° 0 mm 5 mps 756 mmHg 29%
    04:00 +19°C° 0 mm 5 mps 755 mmHg 26%
    05:00 +19°C° 0 mm 5 mps 756 mmHg 26%
    06:00 +19°C° 0 mm 4 mps 756 mmHg 26%
    07:00 +18°C° 0 mm 4 mps 757 mmHg 25%
    08:00 +20°C° 0 mm 4 mps 757 mmHg 22%
    09:00 +22°C° 0 mm 3 mps 757 mmHg 19%
    10:00 +24°C° 0 mm 3 mps 757 mmHg 16%
    11:00 +25°C° 0 mm 2 mps 757 mmHg 15%
    12:00 +26°C° 0 mm 2 mps 756 mmHg 14%
    13:00 +27°C° 0 mm 1 mps 756 mmHg 13%
    14:00 +27°C° 0 mm 2 mps 756 mmHg 13%
    15:00 +27°C° 0 mm 3 mps 756 mmHg 13%
    16:00 +27°C° 0 mm 3 mps 756 mmHg 14%
    17:00 +26°C° 0 mm 3 mps 756 mmHg 19%
    18:00 +24°C° 0 mm 3 mps 757 mmHg 24%
    19:00 +22°C° 0 mm 3 mps 757 mmHg 30%
    20:00 +22°C° 0 mm 3 mps 757 mmHg 31%
    21:00 +21°C° 0 mm 2 mps 757 mmHg 32%
    22:00 +21°C° 0 mm 1 mps 757 mmHg 33%
    23:00 +21°C° 0 mm 1 mps 757 mmHg 33%

    Tomorrow, 24 January, Wednesday

    Time Temperature Precipitation Wind Pressure Humidity
    00:00 +20°C° 0 mm 1 mps 757 mmHg 34%
    01:00 +20°C° 0 mm 1 mps 757 mmHg 35%
    02:00 +19°C° 0 mm 1 mps 757 mmHg 36%
    03:00 +19°C° 0 mm 1 mps 757 mmHg 37%
    04:00 +19°C° 0 mm 1 mps 756 mmHg 39%
    05:00 +19°C° 0 mm 1 mps 757 mmHg 38%
    06:00 +19°C° 0 mm 1 mps 757 mmHg 38%
    07:00 +19°C° 0 mm 1 mps 758 mmHg 37%
    08:00 +21°C° 0 mm 1 mps 758 mmHg 32%
    09:00 +23°C° 0 mm 2 mps 759 mmHg 27%
    10:00 +26°C° 0 mm 2 mps 759 mmHg 23%
    11:00 +27°C° 0 mm 3 mps 758 mmHg 22%
    12:00 +27°C° 0 mm 3 mps 758 mmHg 22%
    13:00 +28°C° 0 mm 4 mps 757 mmHg 21%
    14:00 +28°C° 0 mm 4 mps 757 mmHg 26%
    15:00 +27°C° 0 mm 5 mps 757 mmHg 31%
    16:00 +27°C° 0 mm 5 mps 757 mmHg 36%
    17:00 +26°C° 0 mm 5 mps 757 mmHg 43%
    18:00 +25°C° 0 mm 4 mps 757 mmHg 51%
    19:00 +22°C° 0 mm 4 mps 758 mmHg 58%
    20:00 +22°C° 0 mm 4 mps 758 mmHg 61%
    21:00 +22°C° 0 mm 4 mps 758 mmHg 64%
    22:00 +21°C° 0 mm 3 mps 758 mmHg 66%
    23:00 +21°C° 0 mm 4 mps 758 mmHg 69%

    Day after tomorrow, 25 January, Thursday

    Time Temperature Precipitation Wind Pressure Humidity
    00:00 +21°C° 0 mm 4 mps 757 mmHg 71%
    01:00 +20°C° 0 mm 4 mps 757 mmHg 73%
    02:00 +20°C° 0 mm 4 mps 757 mmHg 74%
    03:00 +20°C° 0 mm 4 mps 757 mmHg 75%
    04:00 +20°C° 0 mm 4 mps 756 mmHg 76%
    05:00 +20°C° 0 mm 4 mps 757 mmHg 75%
    06:00 +20°C° 0 mm 4 mps 757 mmHg 74%
    07:00 +20°C° 0 mm 4 mps 757 mmHg 73%
    08:00 +22°C° 0 mm 4 mps 758 mmHg 63%
    09:00 +23°C° 0 mm 4 mps 758 mmHg 53%
    10:00 +26°C° 0 mm 4 mps 758 mmHg 43%
    11:00 +27°C° 0 mm 4 mps 758 mmHg 40%
    12:00 +27°C° 0 mm 4 mps 757 mmHg 36%
    13:00 +28°C° 0 mm 4 mps 756 mmHg 33%
    14:00 +28°C° 0 mm 4 mps 756 mmHg 35%
    15:00 +28°C° 0 mm 4 mps 756 mmHg 37%
    16:00 +27°C° 0 mm 4 mps 755 mmHg 40%
    17:00 +26°C° 0 mm 4 mps 756 mmHg 47%
    18:00 +25°C° 0 mm 4 mps 756 mmHg 54%
    19:00 +24°C° 0 mm 3 mps 757 mmHg 61%
    20:00 +22°C° 0 mm 3 mps 757 mmHg 63%
    21:00 +22°C° 0 mm 3 mps 757 mmHg 66%
    22:00 +21°C° 0 mm 2 mps 757 mmHg 68%
    23:00 +21°C° 0 mm 2 mps 757 mmHg 70%

    26 January, Friday

    Time Temperature Precipitation Wind Pressure Humidity
    00:00 +21°C° 0 mm 2 mps 757 mmHg 72%
    01:00 +20°C° 0 mm 2 mps 756 mmHg 74%
    02:00 +20°C° 0 mm 2 mps 756 mmHg 75%
    03:00 +19°C° 0 mm 2 mps 756 mmHg 76%
    04:00 +19°C° 0 mm 2 mps 756 mmHg 77%
    05:00 +20°C° 0 mm 1 mps 756 mmHg 75%
    06:00 +20°C° 0 mm 1 mps 757 mmHg 73%
    07:00 +20°C° 0 mm 1 mps 757 mmHg 70%
    08:00 +22°C° 0 mm 1 mps 758 mmHg 59%
    09:00 +24°C° 0 mm 1 mps 758 mmHg 48%
    10:00 +24°C° 0 mm 0 mps 758 mmHg 37%
    11:00 +27°C° 0 mm 1 mps 758 mmHg 32%
    12:00 +28°C° 0 mm 1 mps 757 mmHg 27%
    13:00 +29°C° 0 mm 1 mps 756 mmHg 22%
    14:00 +29°C° 0 mm 2 mps 756 mmHg 23%
    15:00 +29°C° 0 mm 2 mps 756 mmHg 23%
    16:00 +29°C° 0 mm 3 mps 755 mmHg 24%
    17:00 +28°C° 0 mm 3 mps 756 mmHg 30%
    18:00 +26°C° 0 mm 3 mps 756 mmHg 36%
    19:00 +25°C° 0 mm 3 mps 757 mmHg 42%
    20:00 +24°C° 0 mm 2 mps 757 mmHg 44%
    21:00 +24°C° 0 mm 2 mps 757 mmHg 46%
    22:00 +23°C° 0 mm 2 mps 757 mmHg 48%
    23:00 +23°C° 0 mm 2 mps 757 mmHg 50%

    27 January, Saturday

    Time Temperature Precipitation Wind Pressure Humidity
    00:00 +23°C° 0 mm 2 mps 757 mmHg 52%
    01:00 +21°C° 0 mm 3 mps 757 mmHg 54%
    02:00 +21°C° 0 mm 3 mps 756 mmHg 55%
    03:00 +21°C° 0 mm 3 mps 756 mmHg 56%
    04:00 +20°C° 0 mm 3 mps 756 mmHg 57%
    05:00 +20°C° 0 mm 2 mps 756 mmHg 56%
    06:00 +20°C° 0 mm 2 mps 757 mmHg 55%
    07:00 +20°C° 0 mm 2 mps 757 mmHg 53%
    08:00 +23°C° 0 mm 1 mps 757 mmHg 45%
    09:00 +25°C° 0 mm 1 mps 758 mmHg 37%
    10:00 +27°C° 0 mm 1 mps 758 mmHg 29%
    11:00 +28°C° 0 mm 2 mps 757 mmHg 26%
    12:00 +29°C° 0 mm 2 mps 756 mmHg 24%
    13:00 +30°C° 0 mm 3 mps 756 mmHg 21%
    14:00 +29°C° 0 mm 3 mps 755 mmHg 23%
    15:00 +29°C° 0 mm 4 mps 755 mmHg 25%
    16:00 +28°C° 0 mm 4 mps 755 mmHg 28%
    17:00 +27°C° 0 mm 4 mps 755 mmHg 35%
    18:00 +26°C° 0 mm 4 mps 756 mmHg 42%
    19:00 +25°C° 0 mm 3 mps 756 mmHg 49%
    20:00 +24°C° 0 mm 3 mps 756 mmHg 53%
    21:00 +22°C° 0 mm 3 mps 757 mmHg 57%
    22:00 +22°C° 0 mm 3 mps 757 mmHg 61%
    23:00 +22°C° 0 mm 3 mps 757 mmHg 63%

    28 January, Sunday

    Time Temperature Precipitation Wind Pressure Humidity
    00:00 +21°C° 0 mm 3 mps 756 mmHg 66%
    01:00 +21°C° 0 mm 3 mps 756 mmHg 68%
    02:00 +20°C° 0 mm 3 mps 756 mmHg 70%
    03:00 +20°C° 0 mm 2 mps 756 mmHg 72%
    04:00 +20°C° 0 mm 2 mps 755 mmHg 74%
    05:00 +20°C° 0 mm 2 mps 756 mmHg 74%
    06:00 +20°C° 0 mm 2 mps 756 mmHg 75%
    07:00 +20°C° 0 mm 2 mps 757 mmHg 75%
    08:00 +23°C° 0 mm 2 mps 757 mmHg 64%
    09:00 +24°C° 0 mm 2 mps 757 mmHg 54%
    10:00 +26°C° 0 mm 2 mps 758 mmHg 43%
    11:00 +27°C° 0 mm 2 mps 757 mmHg 38%
    12:00 +28°C° 0 mm 3 mps 756 mmHg 32%
    13:00 +29°C° 0 mm 3 mps 755 mmHg 27%
    14:00 +29°C° 0 mm 4 mps 755 mmHg 29%
    15:00 +28°C° 0 mm 4 mps 755 mmHg 31%
    16:00 +28°C° 0 mm 4 mps 755 mmHg 33%
    17:00 +27°C° 0 mm 4 mps 755 mmHg 40%
    18:00 +26°C° 0 mm 3 mps 756 mmHg 47%
    19:00 +24°C° 0 mm 3 mps 756 mmHg 55%
    20:00 +24°C° 0 mm 3 mps 756 mmHg 58%
    21:00 +22°C° 0 mm 3 mps 757 mmHg 62%
    22:00 +22°C° 0 mm 3 mps 757 mmHg 66%
    23:00 +22°C° 0 mm 3 mps 756 mmHg 68%
    Show more